| time (UTC) | temp C | wind direction | speed KPH | gust KPH | rain 1hr cm | rain 24hr cm | rain mn cm | humidity % | barometer mb |
| 20260509072705 | 5 | 165 | 3.2 | 4.8 | 0.00 | 0.00 | 0.00 | 71 | 1010.2 |
| 20260509072205 | 5 | 167 | 3.2 | 8.0 | 0.00 | 0.00 | 0.00 | 72 | 1010.2 |
| 20260509070705 | 5 | 167 | 4.8 | 8.0 | 0.00 | 0.00 | 0.00 | 74 | 1010.1 |
| 20260509070205 | 5 | 170 | 3.2 | 8.0 | 0.00 | 0.00 | 0.00 | 74 | 1010.0 |
| 20260509064705 | 4 | 170 | 3.2 | 4.8 | 0.00 | 0.00 | 0.00 | 75 | 1010.0 |
| 20260509064205 | 4 | 170 | 3.2 | 4.8 | 0.00 | 0.00 | 0.00 | 76 | 1010.0 |
| 20260509062705 | 3 | 171 | 1.6 | 3.2 | 0.00 | 0.00 | 0.00 | 78 | 1009.9 |
| 20260509062205 | 3 | 171 | 1.6 | 4.8 | 0.00 | 0.00 | 0.00 | 77 | 1010.0 |
| 20260509060705 | 3 | 171 | 1.6 | 3.2 | 0.00 | 0.00 | 0.00 | 78 | 1010.0 |
| 20260509060205 | 3 | 171 | 1.6 | 3.2 | 0.00 | 0.00 | 0.00 | 77 | 1010.0 |
| 20260509054705 | 4 | 171 | 1.6 | 3.2 | 0.00 | 0.00 | 0.00 | 77 | 1010.1 |
| 20260509054205 | 4 | 171 | 1.6 | 3.2 | 0.00 | 0.00 | 0.00 | 77 | 1010.1 |
| 20260509052705 | 4 | 171 | 1.6 | 3.2 | 0.00 | 0.00 | 0.00 | 76 | 1010.1 |
| 20260509052205 | 4 | 171 | 1.6 | 3.2 | 0.00 | 0.00 | 0.00 | 76 | 1010.1 |
| 20260509050705 | 5 | 171 | 1.6 | 3.2 | 0.00 | 0.00 | 0.00 | 75 | 1010.1 |
| 20260509050205 | 5 | 171 | 1.6 | 4.8 | 0.00 | 0.00 | 0.00 | 75 | 1010.1 |
| 20260509044705 | 5 | 171 | 1.6 | 4.8 | 0.00 | 0.00 | 0.00 | 75 | 1010.0 |
| 20260509044204 | 5 | 171 | 1.6 | 4.8 | 0.00 | 0.00 | 0.00 | 75 | 1010.1 |
| 20260509042704 | 4 | 171 | 1.6 | 4.8 | 0.00 | 0.00 | 0.00 | 76 | 1010.0 |
| 20260509042205 | 4 | 171 | 3.2 | 4.8 | 0.00 | 0.00 | 0.00 | 76 | 1010.0 |
| 20260509040704 | 4 | 171 | 1.6 | 3.2 | 0.00 | 0.00 | 0.00 | 77 | 1009.9 |
| 20260509040204 | 4 | 171 | 1.6 | 3.2 | 0.00 | 0.00 | 0.00 | 77 | 1009.8 |
| 20260509034705 | 4 | 171 | 1.6 | 1.6 | 0.00 | 0.00 | 0.00 | 75 | 1009.7 |
| 20260509034205 | 5 | 171 | 1.6 | 4.8 | 0.00 | 0.00 | 0.00 | 74 | 1009.7 |
| 20260509032705 | 5 | 171 | 3.2 | 4.8 | 0.00 | 0.00 | 0.00 | 73 | 1009.7 |
| 20260509032205 | 5 | 171 | 1.6 | 4.8 | 0.00 | 0.00 | 0.00 | 72 | 1009.6 |
| 20260509030708 | 5 | 171 | 1.6 | 4.8 | 0.00 | 0.00 | 0.00 | 71 | 1009.6 |
| 20260509030205 | 6 | 171 | 3.2 | 4.8 | 0.00 | 0.00 | 0.00 | 71 | 1009.6 |
| 20260509024705 | 6 | 171 | 3.2 | 4.8 | 0.00 | 0.00 | 0.00 | 69 | 1009.6 |
| 20260509024205 | 6 | 171 | 3.2 | 9.7 | 0.00 | 0.00 | 0.00 | 69 | 1009.6 |
| 20260509022705 | 6 | 173 | 3.2 | 4.8 | 0.00 | 0.00 | 0.00 | 68 | 1009.5 |
| 20260509022205 | 6 | 173 | 3.2 | 8.0 | 0.00 | 0.00 | 0.00 | 68 | 1009.6 |
| 20260509020704 | 7 | 175 | 4.8 | 9.7 | 0.00 | 0.00 | 0.00 | 67 | 1009.5 |
| 20260509020204 | 7 | 176 | 3.2 | 4.8 | 0.00 | 0.00 | 0.00 | 68 | 1009.5 |
| 20260509014704 | 7 | 175 | 3.2 | 8.0 | 0.00 | 0.00 | 0.00 | 68 | 1009.4 |
| 20260509014205 | 7 | 180 | 3.2 | 8.0 | 0.00 | 0.00 | 0.00 | 68 | 1009.3 |
| 20260509012704 | 7 | 180 | 1.6 | 4.8 | 0.00 | 0.00 | 0.00 | 68 | 1009.2 |
| 20260509012205 | 7 | 180 | 1.6 | 4.8 | 0.00 | 0.00 | 0.00 | 67 | 1009.2 |
| 20260509010705 | 7 | 180 | 3.2 | 4.8 | 0.00 | 0.00 | 0.00 | 66 | 1009.0 |
| 20260509010205 | 7 | 180 | 3.2 | 8.0 | 0.00 | 0.00 | 0.00 | 65 | 1009.0 |
| 20260509004704 | 7 | 186 | 3.2 | 4.8 | 0.00 | 0.00 | 0.00 | 64 | 1008.8 |
| 20260509004204 | 8 | 186 | 3.2 | 4.8 | 0.00 | 0.00 | 0.00 | 63 | 1008.7 |
| 20260509002705 | 8 | 186 | 3.2 | 4.8 | 0.00 | 0.00 | 0.00 | 63 | 1008.5 |
| 20260509002205 | 8 | 187 | 3.2 | 9.7 | 0.00 | 0.00 | 0.00 | 63 | 1008.5 |
| 20260509000704 | 8 | 192 | 3.2 | 4.8 | 0.00 | 0.00 | 0.00 | 62 | 1008.3 |
| 20260509000204 | 8 | 193 | 3.2 | 4.8 | 0.00 | 0.00 | 0.00 | 61 | 1008.2 |
| 20260508234705 | 8 | 194 | 1.6 | 4.8 | 0.00 | 0.00 | 0.00 | 59 | 1008.2 |
| 20260508234205 | 8 | 194 | 1.6 | 8.0 | 0.00 | 0.00 | 0.00 | 59 | 1008.2 |
| 20260508232705 | 9 | 219 | 4.8 | 9.7 | 0.00 | 0.00 | 0.00 | 58 | 1008.1 |
| 20260508232204 | 9 | 219 | 6.4 | 16.1 | 0.00 | 0.00 | 0.00 | 59 | 1008.1 |
| 20260508230704 | 10 | 169 | 4.8 | 19.3 | 0.00 | 0.00 | 0.00 | 57 | 1008.2 |
| 20260508230204 | 10 | 198 | 4.8 | 14.5 | 0.00 | 0.00 | 0.00 | 56 | 1008.2 |
| 20260508224705 | 10 | 190 | 6.4 | 12.9 | 0.00 | 0.00 | 0.00 | 55 | 1008.1 |
| 20260508224204 | 10 | 284 | 4.8 | 14.5 | 0.00 | 0.00 | 0.00 | 53 | 1008.0 |
| 20260508222705 | 10 | 243 | 8.0 | 12.9 | 0.00 | 0.00 | 0.00 | 52 | 1008.0 |
| 20260508222205 | 10 | 270 | 4.8 | 14.5 | 0.00 | 0.00 | 0.00 | 53 | 1007.9 |
| 20260508220704 | 11 | 202 | 6.4 | 12.9 | 0.00 | 0.00 | 0.00 | 53 | 1007.9 |
| 20260508220204 | 11 | 202 | 4.8 | 12.9 | 0.00 | 0.00 | 0.00 | 52 | 1007.9 |
| 20260508214704 | 10 | 244 | 4.8 | 9.7 | 0.00 | 0.00 | 0.00 | 50 | 1007.7 |
| 20260508214205 | 10 | 219 | 4.8 | 12.9 | 0.00 | 0.00 | 0.00 | 51 | 1007.7 |
| 20260508212705 | 10 | 309 | 6.4 | 11.3 | 0.00 | 0.00 | 0.00 | 50 | 1007.7 |
| 20260508212205 | 10 | 221 | 4.8 | 11.3 | 0.00 | 0.00 | 0.00 | 50 | 1007.6 |
| 20260508210704 | 10 | 253 | 4.8 | 9.7 | 0.00 | 0.00 | 0.00 | 50 | 1007.6 |
| 20260508210204 | 10 | 275 | 6.4 | 14.5 | 0.00 | 0.00 | 0.00 | 50 | 1007.7 |
| 20260508204704 | 11 | 280 | 8.0 | 19.3 | 0.00 | 0.00 | 0.00 | 49 | 1007.5 |
| 20260508204205 | 11 | 289 | 8.0 | 20.9 | 0.00 | 0.00 | 0.00 | 50 | 1007.4 |
| 20260508202704 | 11 | 265 | 6.4 | 12.9 | 0.00 | 0.00 | 0.00 | 51 | 1007.3 |
| 20260508202204 | 10 | 218 | 6.4 | 12.9 | 0.00 | 0.00 | 0.00 | 52 | 1007.3 |
| 20260508200704 | 10 | 261 | 4.8 | 8.0 | 0.00 | 0.00 | 0.00 | 52 | 1007.3 |
| 20260508200205 | 10 | 185 | 8.0 | 11.3 | 0.00 | 0.00 | 0.00 | 52 | 1007.4 |
| 20260508194705 | 10 | 291 | 8.0 | 16.1 | 0.00 | 0.00 | 0.00 | 53 | 1007.5 |
| 20260508194205 | 10 | 249 | 6.4 | 24.1 | 0.00 | 0.00 | 0.00 | 55 | 1007.5 |
| 20260508192704 | 10 | 229 | 6.4 | 11.3 | 0.00 | 0.00 | 0.00 | 52 | 1007.5 |
| 20260508192204 | 10 | 252 | 9.7 | 22.5 | 0.00 | 0.00 | 0.00 | 51 | 1007.5 |
| 20260508190704 | 10 | 282 | 6.4 | 11.3 | 0.00 | 0.00 | 0.00 | 53 | 1007.5 |
| 20260508190204 | 10 | 289 | 8.0 | 19.3 | 0.00 | 0.00 | 0.00 | 53 | 1007.5 |
| 20260508184705 | 9 | 303 | 9.7 | 19.3 | 0.00 | 0.00 | 0.00 | 52 | 1007.6 |
| 20260508184204 | 9 | 286 | 9.7 | 24.1 | 0.00 | 0.00 | 0.00 | 52 | 1007.6 |
| 20260508182704 | 10 | 218 | 9.7 | 19.3 | 0.00 | 0.00 | 0.00 | 52 | 1007.5 |
| 20260508182204 | 10 | 277 | 9.7 | 20.9 | 0.00 | 0.00 | 0.00 | 52 | 1007.5 |
| 20260508180704 | 10 | 286 | 9.7 | 22.5 | 0.00 | 0.00 | 0.00 | 54 | 1007.5 |
| 20260508180204 | 9 | 248 | 6.4 | 16.1 | 0.00 | 0.00 | 0.00 | 56 | 1007.5 |
| 20260508174704 | 9 | 278 | 6.4 | 12.9 | 0.00 | 0.00 | 0.00 | 58 | 1007.5 |
| 20260508174205 | 9 | 232 | 4.8 | 22.5 | 0.00 | 0.00 | 0.00 | 57 | 1007.5 |
| 20260508172704 | 9 | 252 | 6.4 | 12.9 | 0.00 | 0.00 | 0.00 | 56 | 1007.5 |
| 20260508172204 | 9 | 297 | 8.0 | 14.5 | 0.00 | 0.00 | 0.00 | 57 | 1007.5 |
| 20260508170704 | 10 | 196 | 6.4 | 12.9 | 0.00 | 0.00 | 0.00 | 57 | 1007.5 |
| 20260508170205 | 10 | 192 | 4.8 | 14.5 | 0.00 | 0.00 | 0.00 | 57 | 1007.5 |
| 20260508164704 | 10 | 283 | 4.8 | 11.3 | 0.00 | 0.00 | 0.00 | 55 | 1007.5 |
| 20260508164204 | 10 | 288 | 6.4 | 14.5 | 0.00 | 0.00 | 0.00 | 56 | 1007.5 |
| 20260508162704 | 9 | 261 | 8.0 | 14.5 | 0.00 | 0.00 | 0.00 | 58 | 1007.6 |
| 20260508162206 | 9 | 246 | 8.0 | 20.9 | 0.00 | 0.00 | 0.00 | 59 | 1007.6 |
| 20260508160705 | 9 | 258 | 6.4 | 14.5 | 0.00 | 0.00 | 0.00 | 59 | 1007.7 |
| 20260508160204 | 9 | 271 | 6.4 | 14.5 | 0.00 | 0.00 | 0.00 | 59 | 1007.7 |
| 20260508154704 | 9 | 304 | 6.4 | 12.9 | 0.00 | 0.00 | 0.00 | 60 | 1007.8 |
| 20260508154205 | 9 | 271 | 8.0 | 12.9 | 0.00 | 0.00 | 0.00 | 59 | 1007.9 |
| 20260508152704 | 9 | 228 | 4.8 | 9.7 | 0.00 | 0.00 | 0.00 | 63 | 1007.8 |
| 20260508152204 | 8 | 276 | 6.4 | 12.9 | 0.00 | 0.00 | 0.00 | 61 | 1007.9 |
| 20260508150705 | 8 | 263 | 4.8 | 14.5 | 0.00 | 0.00 | 0.00 | 64 | 1008.0 |
| 20260508150204 | 8 | 311 | 4.8 | 12.9 | 0.00 | 0.00 | 0.00 | 65 | 1008.0 |
| 20260508144704 | 8 | 268 | 8.0 | 11.3 | 0.00 | 0.00 | 0.00 | 64 | 1008.0 |
| 20260508144204 | 8 | 304 | 6.4 | 14.5 | 0.00 | 0.00 | 0.00 | 66 | 1008.1 |
| 20260508142704 | 7 | 251 | 4.8 | 9.7 | 0.00 | 0.00 | 0.00 | 65 | 1008.1 |
| 20260508142204 | 7 | 275 | 3.2 | 8.0 | 0.00 | 0.00 | 0.00 | 67 | 1008.0 |
| 20260508140706 | 7 | 295 | 4.8 | 8.0 | 0.00 | 0.00 | 0.00 | 69 | 1008.1 |
| 20260508140204 | 7 | 261 | 4.8 | 9.7 | 0.00 | 0.00 | 0.00 | 69 | 1008.0 |
| 20260508134704 | 7 | 295 | 3.2 | 9.7 | 0.00 | 0.00 | 0.00 | 69 | 1008.0 |
| 20260508134204 | 7 | 272 | 4.8 | 12.9 | 0.00 | 0.00 | 0.00 | 70 | 1008.1 |
| 20260508132704 | 7 | 278 | 4.8 | 8.0 | 0.00 | 0.00 | 0.00 | 70 | 1008.1 |
| 20260508132204 | 7 | 269 | 4.8 | 8.0 | 0.00 | 0.00 | 0.00 | 71 | 1008.1 |
| 20260508130704 | 7 | 276 | 4.8 | 4.8 | 0.00 | 0.00 | 0.00 | 73 | 1008.0 |
| 20260508130205 | 6 | 266 | 3.2 | 8.0 | 0.00 | 0.00 | 0.00 | 74 | 1008.0 |
| 20260508124704 | 6 | 250 | 3.2 | 4.8 | 0.00 | 0.00 | 0.00 | 75 | 1008.0 |
| 20260508124204 | 6 | 279 | 3.2 | 4.8 | 0.00 | 0.00 | 0.00 | 75 | 1008.0 |
| 20260508122704 | 6 | 282 | 4.8 | 4.8 | 0.00 | 0.00 | 0.00 | 75 | 1008.0 |
| 20260508122204 | 6 | 261 | 3.2 | 8.0 | 0.00 | 0.00 | 0.00 | 75 | 1007.9 |
| 20260508120204 | 5 | 276 | 3.2 | 4.8 | 0.00 | 0.00 | 0.00 | 77 | 1007.9 |
| 20260508114704 | 5 | 271 | 3.2 | 4.8 | 0.00 | 0.00 | 0.00 | 78 | 1007.8 |
| 20260508114204 | 5 | 261 | 4.8 | 8.0 | 0.00 | 0.00 | 0.00 | 80 | 1007.8 |
| 20260508112704 | 5 | 279 | 1.6 | 4.8 | 0.00 | 0.00 | 0.00 | 83 | 1007.6 |
| 20260508112204 | 5 | 279 | 0.0 | 3.2 | 0.00 | 0.00 | 0.00 | 84 | 1007.6 |
| 20260508110704 | 4 | 279 | 1.6 | 4.8 | 0.00 | 0.00 | 0.00 | 84 | 1007.6 |
| 20260508110204 | 4 | 279 | 0.0 | 1.6 | 0.00 | 0.00 | 0.00 | 84 | 1007.5 |
| 20260508104704 | 4 | 279 | 1.6 | 4.8 | 0.00 | 0.00 | 0.00 | 85 | 1007.4 |
| 20260508104204 | 4 | 279 | 1.6 | 8.0 | 0.00 | 0.00 | 0.00 | 85 | 1007.3 |
| 20260508102704 | 3 | 283 | 1.6 | 4.8 | 0.00 | 0.00 | 0.00 | 85 | 1007.2 |
| 20260508102204 | 3 | 283 | 3.2 | 4.8 | 0.00 | 0.00 | 0.00 | 86 | 1007.2 |
| 20260508100704 | 3 | 283 | 0.0 | 3.2 | 0.00 | 0.00 | 0.00 | 86 | 1007.1 |
| 20260508100204 | 3 | 283 | 1.6 | 4.8 | 0.00 | 0.00 | 0.00 | 87 | 1007.0 |
| 20260508094704 | 3 | 283 | 1.6 | 3.2 | 0.00 | 0.00 | 0.00 | 87 | 1006.9 |
| 20260508094204 | 3 | 283 | 1.6 | 3.2 | 0.00 | 0.00 | 0.00 | 87 | 1006.9 |
| 20260508092204 | 3 | 283 | 0.0 | 3.2 | 0.00 | 0.00 | 0.00 | 88 | 1006.7 |
| 20260508090703 | 3 | 283 | 0.0 | 1.6 | 0.00 | 0.00 | 0.00 | 88 | 1006.7 |
| 20260508090204 | 3 | 283 | 0.0 | 1.6 | 0.00 | 0.00 | 0.00 | 88 | 1006.8 |
| 20260508084704 | 3 | 283 | 0.0 | 1.6 | 0.00 | 0.00 | 0.00 | 88 | 1006.7 |
| 20260508084204 | 3 | 283 | 1.6 | 3.2 | 0.00 | 0.00 | 0.00 | 88 | 1006.8 |
| 20260508082704 | 3 | 283 | 0.0 | 3.2 | 0.00 | 0.00 | 0.00 | 89 | 1006.8 |
| 20260508082204 | 3 | 283 | 0.0 | 1.6 | 0.00 | 0.00 | 0.00 | 89 | 1006.7 |
| 20260508080704 | 3 | 283 | 0.0 | 0.0 | 0.00 | 0.00 | 0.00 | 89 | 1006.7 |
| 20260508080203 | 3 | 283 | 0.0 | 3.2 | 0.00 | 0.00 | 0.00 | 89 | 1006.7 |
| 20260508074706 | 3 | 283 | 0.0 | 0.0 | 0.00 | 0.00 | 0.00 | 89 | 1006.6 |
| 20260508074205 | 3 | 283 | 0.0 | 3.2 | 0.00 | 0.00 | 0.00 | 89 | 1006.6 |